Location: Franzen
(48.6167°N, 15.3833°E)
Time: 13:08:30
(UTC+00:00)

Cosmos 2082 Rocket - Pass Details

Date: 22 April 2021
Orbit: 835 x 852 km, 71.0° (Epoch: 16 May)

Event Time Altitude Azimuth Distance (km) Brightness Sun altitude
Rises 22:44:30 0° 336° (NNW) 3,399 6.4 -28.8°
Reaches altitude 10° 22:47:34 10° 352° (N) 2,460 5.6 -28.8°
Maximum altitude 22:51:50 22° 41° (NE) 1,779 4.3 -28.9°
Drops below altitude 10° 22:56:04 10° 91° (E) 2,448 4.6 -28.9°
Enters shadow 22:56:12 10° 92° (E) 2,486 4.6 -28.9°
